Location: Palombina Nuova
(43.6167°N, 13.4000°E)
Time: 22:52:37
(UTC+00:00)

STARLINK-1085 - Pass Details

Date: 17 February 2020
Orbit: 374 x 385 km, 53.0° (Epoch: 05 April)

Event Time Altitude Azimuth Distance (km) Brightness Sun altitude
Exits shadow 05:16:43 - 245° (WSW) 1,480 5.3 -9.0°
Reaches altitude 10° 05:16:54 10° 245° (WSW) 1,407 5.2 -9.0°
Maximum altitude 05:20:01 62° 328° (NNW) 436 2.9 -8.4°
Drops below altitude 10° 05:23:08 10° 50° (NE) 1,407 6.3 -7.9°
Sets 05:25:12 0° 54° (NE) 2,260 7.5 -7.5°
